Wind_Speed
10 12 12 12 15 18 20 22 24 26 25 23 22 23 21 21 21 21 20 17 16 18 20 22 23 25 26 26 26 26 25 25 25 26 26 27 26 25 24 24 25 26 27 27 27 28 28 28 28 28 27 26 28 29 27 23 22 22 23 23 24 27 28 28 27 28 29 29 27 27 32 37 40 45 50 52 51 51 51 50 49 48 46 43 39
10 13 12 13 16 18 20 21 24 26 22 20 21 20 20 20 21 22 23 21 21 23 24 24 25 25 26 27 26 27 26 24 24 24 24 25 25 24 23 23 24 25 25 25 26 27 28 29 29 28 27 26 27 28 27 25 22 21 21 21 22 23 26 27 26 26 27 28 26 23 26 33 39 44 48 51 52 53 53 53 52 50 49 46 43
11 13 12 14 17 19 20 22 25 23 19 19 20 20 21 23 26 28 28 27 26 26 26 26 26 25 25 26 26 27 27 25 25 23 23 24 24 22 21 22 23 24 24 24 25 26 26 28 28 28 27 26 26 27 26 25 24 22 20 20 21 21 23 26 26 25 25 25 24 22 22 27 34 40 47 51 52 53 55 56 55 53 51 48 46
11 12 13 16 18 19 21 23 25 21 18 20 21 22 23 25 30 34 33 32 29 27 26 26 27 27 27 27 27 28 28 27 26 24 23 23 24 22 21 21 23 24 25 25 25 25 26 26 27 28 28 27 27 27 26 25 25 24 21 19 20 21 22 23 24 25 26 23 20 19 20 21 25 34 43 49 51 52 55 57 57 56 54 51 49
12 12 14 18 19 20 20 22 23 19 19 22 22 23 23 25 32 36 36 35 32 30 27 26 27 28 29 30 30 31 31 31 29 27 26 25 25 25 23 21 23 24 25 25 26 26 27 26 26 26 27 28 28 28 27 26 25 25 24 22 22 22 22 22 22 24 26 24 20 18 17 16 19 25 29 35 42 47 52 57 58 58 57 54 53
12 14 16 19 20 20 21 22 23 21 22 24 24 24 23 26 33 37 38 38 36 34 30 29 28 29 30 32 33 33 32 31 31 31 31 29 28 27 25 23 23 25 25 25 25 26 27 27 26 26 26 27 28 28 28 27 26 25 25 25 25 24 22 22 22 22 24 25 24 23 22 19 18 18 16 20 29 38 47 54 58 59 59 57 55
14 15 16 19 21 22 23 23 24 24 25 25 24 23 23 27 33 37 39 39 38 36 33 32 32 32 34 35 35 35 35 35 34 34 35 35 33 30 28 25 24 25 26 26 25 26 26 27 27 27 27 27 28 28 28 26 26 26 26 26 26 25 23 23 23 22 22 25 25 25 26 26 25 22 18 16 16 22 36 48 54 57 59 60 58
15 17 18 21 22 22 23 24 25 26 25 24 23 22 23 27 31 35 37 37 37 36 34 33 34 35 37 38 38 37 38 40 40 37 37 38 37 35 32 29 25 24 26 28 28 27 27 27 28 28 28 28 29 29 29 27 26 27 28 28 28 27 26 25 24 23 22 24 25 25 26 27 28 28 26 22 17 16 23 35 47 52 55 59 60
17 19 21 22 22 22 23 25 26 26 24 23 23 23 24 26 29 32 33 34 34 34 33 33 34 36 38 39 40 41 42 44 44 39 35 35 36 36 35 34 30 25 25 27 29 29 29 29 30 30 29 29 29 29 29 29 27 26 27 27 28 28 28 27 26 25 24 23 23 25 26 27 28 28 27 25 24 23 20 23 33 43 50 56 60
20 21 22 22 22 24 24 26 27 26 25 24 25 25 25 26 27 30 32 32 31 31 32 33 34 35 37 40 41 42 44 46 46 40 33 31 32 34 34 35 34 29 25 27 29 28 28 29 29 30 31 30 29 28 28 29 29 27 26 26 28 29 30 30 29 28 26 24 23 24 24 26 28 29 28 25 23 25 26 24 24 29 39 51 58
22 22 23 24 25 26 26 27 29 29 28 27 28 27 26 25 27 30 32 32 31 31 31 32 33 34 37 39 40 42 44 46 46 39 32 30 32 32 31 33 33 30 27 28 30 29 29 29 29 30 31 30 29 28 27 28 29 29 27 26 27 29 30 31 31 30 28 26 25 25 26 26 27 29 30 27 23 23 25 27 28 26 29 38 47
23 25 26 26 27 29 30 31 32 32 31 30 30 28 27 26 27 30 32 32 31 31 31 32 33 34 37 39 41 43 44 46 45 37 30 30 31 30 28 28 28 28 28 31 32 31 31 31 31 32 31 31 31 29 27 27 28 30 30 29 27 28 30 31 32 32 31 29 27 27 27 27 28 29 30 30 29 26 23 24 27 27 29 31 34
25 28 29 29 30 31 32 33 34 34 33 32 31 30 27 26 28 31 33 32 31 31 31 32 33 35 38 41 42 44 46 47 43 35 30 30 29 26 25 24 24 25 27 30 31 30 31 32 34 34 33 32 32 31 29 27 27 28 30 32 30 28 29 31 33 33 33 32 30 28 27 27 27 27 28 28 29 29 27 24 23 25 29 31 30
27 30 31 31 32 34 35 36 37 37 36 33 32 30 27 26 28 31 32 32 31 30 30 32 35 37 40 42 44 45 47 47 40 32 30 29 27 26 25 22 21 23 25 27 28 28 29 30 33 34 33 32 32 33 32 30 28 28 30 32 33 31 28 29 32 34 34 33 30 28 27 27 26 25 25 25 26 27 29 28 24 23 27 30 30
31 33 34 36 38 39 40 40 39 39 37 35 34 31 27 26 28 31 32 32 30 29 31 33 36 39 42 44 45 46 47 44 36 31 31 30 28 29 29 24 23 25 25 26 27 27 28 29 30 32 32 33 33 34 34 33 32 32 31 32 34 34 30 29 30 33 35 34 31 29 27 27 26 26 25 25 26 27 28 29 27 24 25 28 29
38 40 41 42 43 42 41 40 39 39 38 37 36 30 25 26 30 31 30 29 29 30 32 35 38 41 44 45 46 47 45 40 34 31 30 30 29 31 33 30 29 29 28 28 28 28 29 30 31 32 33 33 34 34 34 34 35 35 34 33 34 36 34 31 30 32 34 34 33 31 29 28 27 26 26 25 25 27 27 29 29 27 24 25 27
41 42 44 44 43 41 40 40 39 39 39 38 33 26 24 28 31 29 27 26 28 31 33 36 40 43 45 46 46 46 43 38 34 32 32 32 32 32 31 29 28 29 30 31 31 30 31 32 33 33 34 34 35 35 35 35 36 38 38 35 34 35 35 34 31 31 33 34 34 33 32 30 28 27 27 25 25 26 27 28 31 30 28 25 25
41 44 46 44 42 40 40 39 38 37 36 32 27 24 27 31 29 26 26 26 29 32 35 39 42 44 45 46 46 44 40 35 32 30 30 30 30 30 29 28 27 27 28 30 32 32 33 33 34 35 36 37 37 36 35 36 37 38 39 37 34 33 34 35 32 31 32 33 33 33 32 31 29 28 27 26 25 25 27 28 31 32 31 29 27
46 47 44 41 40 40 40 38 37 36 32 28 26 27 30 29 26 25 26 28 31 36 39 41 42 43 44 45 45 40 35 29 24 22 23 24 25 25 25 25 25 26 27 29 31 32 33 34 35 36 37 37 36 35 34 34 35 37 36 35 33 31 33 35 33 31 31 33 33 32 32 31 30 28 27 27 26 25 26 27 29 32 33 32 29
47 41 37 38 38 39 38 36 35 32 29 28 30 31 30 27 25 25 27 32 36 38 39 41 42 43 44 44 40 34 28 23 20 20 23 25 25 24 24 24 26 28 29 31 31 31 31 31 31 32 32 32 31 31 31 31 32 33 32 31 29 29 31 34 34 32 31 32 34 33 32 31 30 29 27 27 27 26 25 26 27 29 32 33 31
39 35 36 38 36 34 34 33 32 29 30 34 35 32 29 26 27 30 33 36 37 37 39 41 42 43 43 39 33 27 24 22 22 24 27 27 27 26 26 27 29 31 31 32 31 30 29 28 27 27 27 27 27 27 27 27 28 28 28 28 28 27 30 32 32 31 31 32 34 34 33 32 30 29 27 26 26 26 25 25 27 29 30 32 32
34 37 39 37 32 32 34 34 34 33 37 41 38 32 29 29 32 34 34 35 36 37 38 40 42 41 37 31 26 24 23 23 24 26 26 26 27 28 29 30 32 33 32 32 31 30 30 29 28 28 28 27 27 26 24 23 25 26 27 28 27 26 29 31 30 30 30 31 33 34 33 32 30 28 27 26 26 26 26 25 26 29 30 31 32
37 38 35 31 30 34 37 37 38 39 41 41 36 31 30 31 32 32 34 36 36 37 40 40 39 35 29 25 24 24 24 24 25 26 26 27 28 30 31 32 31 30 29 28 27 28 29 29 29 30 29 28 26 24 23 22 23 25 26 26 25 23 26 29 29 28 29 30 32 33 33 32 30 29 28 27 26 27 26 26 25 27 30 31 31
37 32 29 31 36 41 42 40 38 37 37 35 32 30 29 29 31 35 37 36 34 36 40 38 33 28 24 23 24 24 24 24 25 28 29 29 29 29 28 28 27 25 24 23 23 23 24 24 25 26 25 24 24 24 24 23 23 24 25 26 24 20 20 25 27 26 27 29 31 32 32 31 30 30 29 28 27 27 27 25 25 26 29 30 30
32 27 32 41 47 46 41 37 35 35 36 37 37 37 36 35 37 39 36 34 35 35 35 32 28 24 22 23 23 23 23 25 26 28 29 27 26 25 25 24 24 23 23 24 22 20 18 18 20 23 24 24 25 25 25 24 24 25 25 26 27 23 18 20 24 26 27 29 30 30 29 29 30 30 30 28 27 27 26 24 24 25 27 29 29
30 33 41 47 46 39 34 34 36 38 38 40 43 43 41 38 36 33 32 37 39 34 29 28 26 23 22 22 23 24 25 27 28 28 27 26 25 25 24 23 24 25 26 26 23 19 17 17 20 24 26 26 27 26 26 26 25 25 25 26 29 28 20 17 18 22 26 28 29 29 27 28 30 30 30 29 27 26 25 24 24 23 25 27 27
34 41 44 41 36 32 33 35 38 40 38 38 39 36 33 31 30 32 38 41 35 28 26 27 25 24 23 23 24 27 28 29 28 27 27 26 25 25 25 25 25 26 26 24 23 21 21 21 23 25 28 29 29 29 29 28 26 24 24 27 30 30 24 19 17 18 23 26 27 27 26 26 29 30 30 29 27 26 26 26 24 22 22 25 26
38 40 38 33 32 32 36 37 37 39 36 33 31 29 29 33 37 41 42 37 29 27 28 26 24 24 23 23 27 30 29 28 27 27 26 25 25 26 26 27 26 26 24 22 23 25 26 26 27 28 30 31 33 32 31 30 29 26 25 27 30 30 26 22 20 21 23 25 24 24 25 26 27 29 30 30 28 27 28 28 25 22 21 23 25
38 35 31 32 36 37 37 38 35 34 33 31 31 33 35 39 42 40 36 31 28 28 28 26 26 25 24 25 28 29 29 27 26 25 25 25 26 26 27 27 27 26 25 23 23 25 28 30 31 31 31 32 34 35 34 32 31 30 29 30 31 31 28 24 22 22 23 23 23 24 27 27 27 27 28 29 29 29 31 29 24 21 20 22 24
35 31 30 37 43 40 36 36 34 35 36 34 35 39 39 37 36 35 32 31 30 29 28 28 28 27 27 27 28 28 27 27 26 26 26 26 25 25 25 25 25 24 23 21 21 23 26 28 29 29 29 29 31 34 35 35 34 33 33 33 33 33 30 26 24 23 22 24 26 28 29 27 26 25 25 26 27 29 29 27 22 19 19 20 23
32 30 33 39 41 35 33 35 37 39 39 35 36 39 37 35 34 33 32 31 30 29 29 28 28 28 28 28 28 28 27 27 28 27 27 26 25 24 23 23 23 22 20 18 18 19 20 20 21 22 23 24 26 27 29 31 34 35 36 35 35 34 33 30 27 25 24 24 27 29 29 27 25 24 24 24 24 24 24 23 22 21 19 19 20
30 33 39 40 35 32 35 38 40 40 37 34 36 37 35 35 34 33 32 31 30 30 30 29 29 29 29 29 29 29 29 30 29 28 27 26 25 24 23 23 22 20 19 18 16 15 15 15 15 16 18 19 19 19 20 22 26 31 35 37 37 37 36 34 31 27 25 25 26 27 28 26 25 25 25 25 23 22 21 22 23 23 22 20 19
30 36 41 38 33 36 41 42 40 36 33 33 35 35 34 34 34 33 32 31 31 31 31 31 31 30 31 31 31 31 31 31 30 28 27 26 25 24 23 22 21 20 19 18 16 14 13 12 11 12 12 13 13 12 13 15 17 21 26 31 35 37 38 37 34 31 27 26 25 26 27 26 26 26 26 25 24 22 22 22 22 24 25 23 21
33 38 39 34 35 42 44 40 36 34 33 33 33 33 34 34 34 33 32 32 32 32 33 34 34 34 34 34 34 34 33 31 30 29 28 26 25 24 22 22 21 20 18 16 14 12 11 9 9 9 9 7 5 4 6 9 11 14 17 22 28 33 37 39 38 34 30 28 25 25 26 26 26 26 26 25 23 21 21 23 23 23 25 25 24
36 38 36 34 40 45 43 38 35 34 33 33 33 34 34 34 34 33 33 33 34 35 36 37 37 37 37 36 36 34 33 31 30 28 27 25 24 23 22 21 19 17 16 14 12 11 10 9 9 10 9 7 7 6 5 4 5 8 11 16 22 27 33 38 41 38 33 30 27 24 25 26 26 26 25 25 23 20 20 22 22 23 24 26 25
36 36 35 37 43 43 39 37 35 34 34 33 34 35 34 34 34 34 34 35 36 37 38 38 39 38 37 36 35 33 32 31 29 28 26 25 23 22 20 19 17 16 14 13 13 13 12 11 11 11 10 7 6 6 6 6 8 12 13 15 20 23 26 32 39 41 38 34 31 28 26 27 28 27 26 24 23 21 21 21 22 22 22 26 27
34 33 33 37 41 39 36 36 35 34 33 33 34 34 34 34 35 36 37 38 38 39 39 39 39 38 37 35 33 32 32 31 29 28 27 25 23 22 20 19 18 17 14 13 13 13 12 11 11 10 10 8 5 4 4 5 9 14 16 15 17 22 25 26 30 37 41 40 36 33 31 29 28 27 26 25 23 22 22 22 23 23 23 26 28
33 33 33 36 39 38 35 36 36 35 33 32 33 33 34 36 37 38 39 39 40 40 39 39 38 37 35 34 32 32 32 31 30 28 27 26 25 23 21 20 19 18 16 14 13 12 11 11 12 11 11 12 10 8 7 7 7 10 10 10 11 15 22 25 24 26 34 40 41 38 35 33 31 29 27 25 24 23 23 23 24 25 24 26 28
33 32 32 35 38 37 36 36 37 35 33 33 33 33 35 37 38 39 40 41 41 40 39 39 37 35 34 32 31 31 30 30 30 28 27 26 24 23 21 20 20 19 16 14 14 14 13 12 12 12 11 12 13 12 11 11 11 11 10 8 7 9 15 22 24 22 23 29 37 41 41 38 36 32 28 27 26 25 25 25 25 25 25 25 26
34 32 32 34 36 37 38 38 38 36 34 33 33 34 37 38 38 39 40 40 40 39 38 37 35 33 32 30 30 30 28 28 28 27 26 25 23 23 21 19 19 17 14 14 15 16 14 12 12 13 12 11 13 14 13 13 14 12 12 11 9 7 8 14 21 23 21 20 24 32 38 38 36 32 30 29 27 26 26 26 25 25 26 25 24
33 32 32 35 36 37 37 36 36 35 34 33 33 35 38 38 38 39 40 39 38 37 36 35 33 31 30 29 28 28 26 25 25 25 24 22 21 21 19 18 17 15 14 14 16 17 16 13 13 15 14 12 13 14 14 14 13 12 12 13 14 13 10 9 13 18 20 19 18 21 25 27 28 27 26 25 25 25 25 25 26 27 28 26 25
33 31 32 35 36 36 36 35 34 34 35 34 34 36 38 38 38 38 38 37 36 35 34 33 31 30 29 28 27 26 25 24 22 22 22 20 19 18 17 16 16 15 14 16 18 19 18 16 16 17 16 14 14 14 14 14 12 11 10 11 14 16 15 14 14 14 16 18 18 18 17 18 20 23 23 23 24 24 25 26 27 27 27 26 26
32 32 33 34 36 37 36 35 34 35 35 35 36 37 37 37 37 37 36 35 34 33 32 31 29 28 28 27 26 25 24 23 22 21 21 21 20 18 16 15 16 16 16 18 20 22 22 20 20 20 18 16 15 14 12 12 11 10 10 9 11 13 16 18 18 19 19 19 19 18 18 18 19 20 21 22 22 23 24 26 26 25 25 25 26
32 33 33 34 36 37 35 34 34 34 35 35 36 37 37 36 36 35 34 34 33 31 30 29 28 27 26 25 25 24 24 23 23 23 22 22 21 20 17 16 17 18 18 21 23 25 25 24 24 24 21 17 16 16 13 10 10 10 10 9 8 8 12 15 17 19 21 22 23 23 22 22 21 21 20 20 21 21 21 23 23 23 23 24 26
32 33 33 34 36 35 35 35 33 33 35 35 34 35 36 36 35 34 34 34 32 30 29 28 27 26 26 25 24 23 23 23 23 22 22 22 21 21 18 16 17 19 21 24 26 27 27 27 27 28 23 17 16 18 16 13 12 11 10 9 8 7 7 10 14 17 19 21 22 23 24 25 25 25 24 23 22 21 21 22 23 24 24 24 26
33 34 34 35 35 34 34 34 33 33 34 33 33 33 34 34 34 33 33 33 32 30 29 27 26 25 25 25 24 23 22 23 22 21 21 21 20 20 18 18 18 19 22 26 27 27 28 29 28 27 21 16 16 17 15 14 13 12 10 9 8 7 7 6 9 13 16 17 18 17 18 20 23 25 26 27 26 26 24 24 24 25 26 26 27
33 33 34 35 35 34 34 34 34 34 34 33 32 31 31 32 32 33 33 32 31 29 28 27 26 26 25 25 26 25 23 22 22 21 21 20 18 17 18 20 22 22 23 27 28 27 29 30 27 23 18 15 15 16 13 12 13 12 10 9 7 6 6 5 3 4 7 10 11 12 13 14 16 18 20 23 25 28 28 27 26 26 28 29 28
32 33 34 34 33 33 33 33 35 35 33 33 32 31 31 31 31 32 32 31 30 29 27 26 25 25 25 25 25 26 25 23 22 21 21 21 20 19 19 21 21 21 24 27 26 27 30 29 23 19 17 14 13 14 14 14 14 14 12 10 8 7 6 4 2 1 1 3 5 7 8 9 10 12 14 16 19 23 25 27 28 29 29 29 29
32 32 33 32 31 32 32 33 34 34 33 32 31 31 31 31 32 32 31 30 30 28 27 26 25 24 25 24 25 25 25 25 24 21 18 16 16 17 19 20 19 17 19 21 21 24 28 27 19 15 16 16 15 14 14 14 14 14 14 12 10 8 7 4 2 1 1 2 4 6 7 8 9 10 13 16 17 18 19 21 24 29 31 30 29
31 31 31 30 29 29 30 32 33 33 33 32 31 31 31 31 32 32 30 29 29 28 27 26 25 24 24 24 25 25 24 24 25 24 21 15 10 8 12 18 18 15 13 13 14 17 22 24 21 16 14 14 15 14 14 14 14 14 14 13 12 10 7 5 2 1 2 2 4 6 7 8 9 9 11 13 15 16 16 15 17 24 29 30 30
30 31 31 30 29 28 30 32 33 33 32 31 31 31 31 31 32 31 30 28 27 27 28 27 26 25 24 23 24 24 23 23 23 24 24 21 15 8 5 9 14 14 12 12 11 11 13 18 20 17 13 13 14 15 15 16 16 15 13 12 11 10 8 7 4 2 0 0 2 4 6 7 8 9 11 12 13 15 16 15 14 16 19 22 24
Wind_Direction
26 14 16 10 1 357 356 356 356 357 358 355 350 346 342 338 336 338 338 335 333 332 327 325 326 324 322 321 318 314 313 312 312 312 310 307 305 303 299 296 291 288 285 284 282 280 279 277 274 273 272 272 274 278 281 283 284 286 283 278 274 272 267 260 257 257 256 254 251 249 247 247 250 250 248 244 242 243 244 243 245 246 247 247 245
8 9 12 3 356 355 355 356 356 356 356 350 346 344 340 342 345 346 344 336 329 327 326 324 323 323 321 318 315 311 308 307 306 308 309 306 304 301 297 294 291 288 286 283 280 279 277 276 274 272 270 268 268 270 274 275 277 281 285 283 279 276 273 266 260 259 258 256 255 258 254 247 246 247 247 245 241 240 242 242 241 242 244 245 245
3 3 1 356 354 354 353 354 355 354 350 344 343 341 341 344 347 345 343 338 331 325 321 319 317 317 315 313 312 311 307 303 298 297 302 304 303 300 297 293 289 286 283 281 279 278 277 276 275 273 270 267 266 266 268 269 271 273 277 283 284 282 279 273 266 261 260 258 255 258 258 249 245 244 244 244 241 238 238 240 241 240 241 242 243
356 356 352 352 352 353 352 351 354 351 342 340 341 340 341 344 347 346 345 342 338 331 323 318 314 310 309 307 306 306 304 301 296 289 288 294 297 295 295 296 294 289 285 282 281 281 280 279 278 276 272 267 265 266 265 265 266 267 268 272 278 281 283 281 273 265 261 260 254 251 253 248 243 244 244 243 241 238 236 237 239 240 240 239 239
348 351 348 349 351 350 349 348 351 346 336 338 339 338 338 341 345 347 347 345 343 337 329 323 319 315 314 311 308 307 305 304 304 299 292 289 288 287 288 294 299 298 293 288 286 284 283 282 282 281 276 269 265 264 264 263 261 261 262 262 266 271 277 282 280 269 261 258 253 245 243 240 239 245 248 246 243 239 237 236 237 238 239 238 238
346 348 344 345 346 346 345 345 347 343 337 338 337 334 334 337 342 345 346 345 342 339 335 329 327 326 326 326 324 323 319 313 308 305 301 296 292 288 285 286 293 297 297 295 291 287 284 284 282 280 276 271 266 264 263 262 259 256 257 258 260 263 267 274 276 272 264 258 253 247 242 242 245 248 249 248 245 241 238 237 235 236 237 238 238
342 342 338 340 342 342 341 341 343 342 339 338 333 330 330 334 339 342 342 341 340 338 335 332 330 330 331 331 331 330 327 321 311 301 296 294 292 289 286 284 286 289 292 293 291 287 285 284 282 279 276 272 267 265 263 262 260 256 254 254 257 259 260 264 269 271 268 260 254 251 248 247 249 253 253 251 250 241 235 234 234 234 234 236 237
334 333 333 336 337 336 334 336 340 341 339 334 328 325 327 331 334 336 338 337 336 335 333 331 330 331 331 331 330 328 327 325 319 306 293 290 289 287 285 284 282 283 286 288 287 285 283 281 281 282 281 277 272 268 264 263 263 259 255 253 253 254 254 257 263 266 267 264 258 254 251 249 249 252 254 253 255 254 239 232 232 232 232 233 235
326 327 328 329 329 328 329 332 336 337 334 329 325 325 324 323 326 331 334 333 332 330 329 327 327 327 327 328 327 326 326 325 324 313 296 291 289 285 283 282 281 281 282 283 283 281 278 277 279 280 280 280 278 274 268 265 264 264 260 255 251 250 249 250 255 259 260 261 262 260 255 251 251 252 254 253 252 255 253 240 234 232 230 231 232
321 321 321 320 322 324 326 329 331 331 328 326 325 324 318 315 321 328 330 329 327 325 323 322 322 322 322 324 323 322 323 324 324 316 300 296 294 288 286 282 280 281 281 278 275 272 272 272 274 275 276 277 278 279 274 267 264 264 262 258 253 250 248 247 249 254 257 255 257 260 257 251 250 250 252 253 250 249 252 251 245 238 234 232 231
316 316 316 318 320 323 324 324 326 326 324 323 324 320 311 308 317 325 326 324 322 319 317 316 316 315 317 319 319 319 320 322 322 314 300 298 297 294 292 287 283 282 277 271 267 266 267 269 270 270 271 273 275 278 278 272 266 264 261 258 255 251 249 248 247 250 255 255 253 254 255 251 249 249 251 252 252 250 252 253 251 249 245 241 236
312 315 315 317 319 322 322 321 321 321 319 320 321 316 306 303 313 321 321 320 318 315 312 311 310 310 313 316 316 317 318 320 318 309 296 295 298 300 300 293 285 278 269 265 264 264 264 265 265 266 268 270 272 274 277 276 272 267 263 259 257 253 250 249 249 248 251 253 251 250 252 252 249 249 251 253 254 253 256 258 255 252 251 249 245
315 318 317 316 316 318 319 317 316 315 316 318 319 314 302 299 309 316 316 316 314 311 308 306 305 307 311 314 315 316 317 317 316 305 292 292 295 298 301 297 282 268 261 260 261 261 261 261 263 265 266 268 270 272 273 277 278 275 268 262 257 255 252 250 250 249 249 252 252 249 250 252 251 248 248 252 255 254 254 257 258 255 253 252 250
322 323 321 319 317 317 317 316 315 314 315 316 317 312 298 295 308 314 314 314 311 306 303 301 303 307 311 313 314 315 316 316 313 302 290 290 293 291 293 295 290 280 272 269 267 264 263 261 262 263 264 266 269 271 273 277 281 282 277 266 257 254 253 252 252 250 248 249 251 248 246 249 250 247 245 247 252 253 251 252 255 255 253 252 250
327 326 324 322 321 320 319 319 318 316 315 313 314 310 295 296 310 314 313 312 306 300 298 299 302 307 310 312 313 315 315 314 309 297 289 289 289 285 281 282 289 290 286 281 277 271 266 261 261 263 264 266 269 271 274 277 281 284 283 272 259 254 253 253 253 251 247 245 244 244 245 247 248 248 246 245 248 251 252 251 252 252 249 248 247
328 326 326 324 324 323 322 322 320 319 316 314 314 308 297 304 314 314 310 305 298 295 296 299 304 307 310 312 313 315 314 311 304 297 292 288 284 283 283 282 282 284 283 279 274 269 265 261 261 264 267 268 269 272 275 279 282 284 285 278 261 253 253 252 253 254 250 245 242 242 245 246 246 248 248 247 246 248 251 249 247 247 246 244 243
328 328 327 326 326 325 325 325 324 323 319 315 314 309 306 314 317 312 303 295 291 292 296 301 306 309 311 312 314 314 312 306 300 292 286 284 283 285 287 284 280 280 279 275 270 267 264 263 264 267 270 271 271 274 277 280 283 284 286 281 265 253 252 251 252 254 253 248 244 242 243 243 242 243 247 248 247 246 246 245 242 242 244 243 240
331 331 330 329 330 331 331 330 328 326 323 319 317 313 315 318 315 303 293 288 290 295 301 306 309 312 313 314 314 313 309 304 299 293 287 285 286 286 286 283 280 278 276 273 271 271 270 269 270 271 273 274 276 278 280 282 284 285 285 280 267 254 250 249 249 252 253 251 245 240 239 240 239 239 243 246 247 245 244 243 240 239 240 242 242
333 332 332 333 334 334 333 332 330 327 325 323 321 321 321 317 307 295 289 291 297 303 306 310 312 314 314 314 314 311 310 307 303 300 296 293 291 288 285 282 277 273 274 277 277 277 276 276 276 276 277 279 280 281 282 283 283 282 279 274 266 255 248 246 246 249 251 250 244 239 236 236 235 236 241 244 245 244 244 243 241 239 238 239 242
331 333 336 337 336 335 335 334 332 330 332 333 330 327 323 314 303 298 299 303 307 310 313 314 315 315 314 314 313 311 310 306 298 293 294 295 293 288 284 281 280 280 283 284 283 282 282 280 280 279 279 279 280 280 279 279 278 276 272 267 263 256 248 244 243 246 249 248 243 238 235 233 232 235 240 243 244 243 244 244 243 243 240 238 239
335 341 341 339 338 339 341 340 337 337 340 338 334 326 319 314 310 310 311 313 315 316 317 317 316 315 315 314 312 310 308 303 298 295 294 293 289 287 286 287 289 290 289 289 286 283 281 278 277 277 275 274 273 273 272 271 271 272 270 267 265 259 251 244 242 243 247 248 243 237 234 232 232 235 239 241 242 243 244 246 243 242 243 240 238
347 345 342 344 348 351 350 347 344 341 338 335 331 321 316 317 317 317 318 320 320 318 317 318 318 317 315 313 310 308 307 304 302 300 297 294 291 290 293 294 294 293 292 291 288 283 279 276 273 272 271 268 267 266 264 264 266 267 269 270 268 263 255 246 240 241 246 248 244 237 233 232 232 234 236 239 242 243 244 247 245 241 240 241 239
350 347 349 357 359 355 349 343 338 334 331 331 327 319 318 322 323 324 325 323 320 318 318 318 318 317 313 311 310 309 307 305 303 302 300 299 297 296 296 297 297 296 294 291 288 285 280 275 270 268 267 265 262 260 259 259 260 260 263 265 264 264 260 250 240 238 243 246 243 237 233 231 231 233 235 237 241 243 243 244 246 243 238 239 239
348 353 1 360 353 347 341 335 333 333 333 334 331 328 330 332 331 328 325 321 319 320 321 320 318 315 312 312 312 311 309 306 302 301 301 301 301 301 300 300 300 299 299 296 293 289 281 274 268 262 259 257 255 253 252 251 251 251 255 256 254 257 259 253 246 240 241 243 239 235 232 230 231 233 235 238 239 240 241 242 245 244 239 237 239
352 356 353 347 344 343 342 339 338 338 337 334 331 332 333 332 330 328 324 321 322 321 321 321 319 316 314 315 315 314 313 310 307 306 307 307 308 307 306 303 300 298 299 295 295 296 287 272 260 253 249 248 248 247 247 246 244 245 249 250 250 251 247 246 248 244 242 241 236 232 230 229 231 234 236 238 237 237 239 241 244 245 240 236 238
351 344 342 342 342 343 344 342 338 337 334 328 325 327 328 329 330 330 327 326 325 324 322 323 322 319 317 316 317 317 316 316 314 314 313 312 312 310 306 301 296 296 296 289 288 294 286 265 254 253 252 252 251 249 248 247 244 244 245 244 248 252 245 238 244 244 242 240 234 229 228 229 232 235 236 237 237 236 237 239 243 244 240 236 237
341 339 341 342 344 344 342 340 337 335 333 330 329 330 332 335 335 332 330 329 328 326 325 325 324 321 319 316 318 319 320 320 319 318 316 313 311 308 304 300 299 300 297 289 284 286 280 269 265 263 260 259 257 253 250 249 247 247 245 242 245 252 251 241 234 233 238 240 234 228 228 230 232 234 235 236 236 236 235 237 241 243 241 237 237
338 341 344 345 347 344 340 338 337 337 337 337 340 340 338 335 332 330 331 331 331 330 328 327 325 323 320 318 321 322 322 322 320 318 315 311 308 307 306 306 306 305 301 292 283 280 275 271 269 267 265 262 259 256 251 248 247 246 244 243 245 251 254 247 235 228 229 235 235 229 227 229 232 233 234 235 235 235 236 237 235 238 243 240 238
338 343 350 352 347 342 340 340 341 343 344 344 343 340 334 331 330 333 335 334 333 332 331 329 326 325 323 322 323 323 322 321 318 316 313 310 308 308 308 309 307 306 303 295 284 278 275 273 272 271 269 264 259 256 252 248 245 242 242 243 245 250 253 250 242 234 227 225 226 226 226 228 232 233 233 235 235 234 238 240 233 233 241 241 238
339 344 350 349 345 343 343 345 346 345 342 339 338 338 336 334 335 337 336 335 334 332 331 330 328 327 326 324 323 323 321 319 317 315 314 313 312 311 310 310 308 307 305 299 289 281 278 277 276 275 273 267 261 258 254 250 246 244 244 245 244 246 250 250 247 242 232 221 219 223 226 228 230 231 232 234 233 232 237 238 231 231 240 241 239
342 349 349 345 344 346 347 346 343 340 338 337 337 338 339 338 337 336 335 334 334 333 332 331 329 328 327 326 325 323 321 321 321 321 321 322 322 321 320 319 317 315 313 307 298 288 283 282 280 278 276 272 268 263 258 253 248 245 246 248 247 245 245 245 246 244 237 226 220 223 225 226 228 230 230 231 230 231 236 235 227 227 237 244 244
347 351 348 344 344 345 345 343 340 339 340 341 339 339 339 338 336 336 335 334 334 334 333 332 331 329 328 327 326 324 324 327 330 332 333 333 332 331 329 328 326 323 320 316 310 305 301 294 288 283 279 277 275 272 266 258 250 245 245 247 249 248 245 242 241 241 239 232 225 224 226 227 227 228 229 229 228 229 234 235 230 226 230 239 246
349 348 346 345 344 342 341 340 339 341 342 340 340 339 337 337 337 335 335 335 335 335 335 334 334 334 333 332 331 331 333 337 339 340 340 339 338 336 336 335 333 332 329 326 325 322 317 312 306 299 290 285 283 277 269 263 255 248 243 243 246 247 245 241 239 237 236 233 228 226 226 227 228 228 229 231 231 231 234 236 234 229 228 233 242
347 346 345 344 342 339 339 340 341 342 341 339 340 339 337 336 336 335 337 338 337 338 340 340 341 341 341 341 340 340 341 343 344 344 343 343 342 341 341 340 338 338 337 335 335 333 331 332 329 324 320 320 322 307 281 270 262 253 245 242 242 243 242 239 237 236 233 231 230 229 227 227 228 229 230 233 234 235 235 233 232 231 230 229 234
344 343 343 342 340 339 340 342 341 341 340 340 340 339 337 337 336 337 340 340 339 342 345 345 344 345 346 347 345 344 345 346 346 346 346 347 346 345 345 344 343 345 345 346 349 351 354 359 357 353 355 13 38 32 2 332 296 272 254 244 241 242 241 238 235 234 232 230 229 229 229 229 229 231 231 232 235 237 237 232 228 231 233 229 229
342 341 339 336 337 340 342 342 341 341 340 340 340 339 338 337 339 341 343 344 344 345 346 346 346 347 348 348 347 346 347 349 349 349 350 351 350 349 350 349 350 356 359 0 3 4 6 9 9 4 357 9 42 36 9 4 351 327 298 267 251 246 244 241 236 233 232 231 229 228 229 228 229 231 231 232 235 239 240 234 227 228 235 233 227
340 339 335 333 338 344 345 344 344 344 343 341 339 339 338 339 343 346 346 347 347 347 348 348 348 349 349 349 349 349 349 350 351 351 353 354 354 355 355 355 357 4 11 13 12 11 9 6 2 356 343 336 352 3 343 344 338 326 315 295 268 253 249 249 243 236 232 232 232 232 232 232 231 231 232 235 239 242 243 239 229 225 230 233 229
339 338 335 335 339 345 346 346 348 348 349 346 341 339 341 343 347 349 349 348 349 350 350 349 349 350 350 350 352 351 349 350 351 353 355 356 356 356 357 358 360 4 9 13 13 14 12 4 358 352 342 332 329 326 318 308 293 292 305 318 302 268 255 252 251 245 237 232 232 233 234 235 235 234 236 242 247 247 244 241 233 224 222 227 228
338 339 337 336 340 346 349 352 353 352 353 351 344 341 345 348 350 351 350 349 350 350 350 348 348 350 350 351 353 352 351 351 352 354 356 356 357 355 355 358 0 1 4 8 9 10 11 10 5 357 346 333 324 317 308 297 285 273 268 281 304 294 270 258 253 252 246 236 232 232 234 237 238 239 243 249 252 249 242 238 234 227 222 223 225
337 339 337 337 342 348 350 353 355 354 355 353 346 343 348 350 351 352 351 350 350 349 349 348 348 349 351 353 355 354 354 353 353 353 354 355 356 354 353 355 357 358 4 9 9 8 5 7 7 0 349 332 321 317 310 299 291 282 265 254 252 259 270 266 257 253 253 246 235 230 231 235 238 242 245 247 246 242 236 232 230 228 226 225 225
336 338 338 339 344 348 351 354 356 357 357 354 347 346 350 351 352 352 351 350 350 349 349 349 350 351 354 356 358 357 356 355 355 353 353 355 356 354 352 353 356 2 9 11 12 10 4 2 5 359 348 333 322 318 314 304 293 285 272 257 250 242 233 236 245 248 250 249 242 233 228 229 232 235 237 236 233 230 228 228 229 230 229 227 227
338 339 340 342 345 348 351 354 357 360 359 355 349 349 351 352 352 352 350 349 350 350 350 351 352 354 356 357 360 359 357 357 357 353 353 356 358 356 354 355 360 7 11 12 12 10 5 3 5 358 346 336 329 320 313 306 297 292 284 269 259 252 239 225 219 224 231 236 238 236 230 226 226 228 228 228 226 225 224 227 231 232 230 227 227
338 340 341 343 344 347 351 354 358 1 1 357 353 351 352 352 352 351 350 349 350 351 352 353 354 355 357 358 359 0 360 0 0 358 357 359 1 2 3 3 6 9 11 12 12 8 4 3 3 360 353 344 339 332 322 309 300 301 305 293 273 259 251 240 230 223 220 221 226 229 228 226 224 224 226 228 229 226 224 225 229 230 230 227 226
338 339 341 344 345 347 350 353 358 1 1 360 356 352 352 353 351 350 349 349 350 351 353 355 356 356 357 358 359 0 2 3 3 2 1 1 2 7 10 9 10 11 12 13 11 7 4 359 357 359 1 357 354 355 353 344 334 331 329 320 303 275 257 251 246 238 230 224 223 223 223 225 225 224 224 226 229 230 226 223 224 227 229 228 227
340 340 342 345 346 347 349 352 358 1 0 0 358 354 352 352 351 351 350 348 349 351 353 355 356 357 359 359 358 359 2 4 5 5 5 4 4 8 13 12 10 12 15 12 7 4 2 358 355 358 4 8 10 12 13 13 10 5 354 343 335 319 288 261 252 250 246 239 234 230 227 226 226 226 226 224 225 227 226 225 224 224 226 226 226
342 344 345 346 347 348 350 352 357 0 360 359 359 357 354 352 351 351 350 348 348 350 353 355 356 358 360 0 360 1 2 3 5 7 11 10 7 7 12 13 11 13 15 11 3 360 1 358 354 357 4 13 18 18 19 20 20 15 5 356 345 334 325 294 259 251 249 248 247 244 240 234 228 228 228 227 226 224 224 224 224 224 226 226 224
344 345 345 346 347 349 351 353 356 359 358 358 359 359 357 355 354 353 351 348 348 350 352 354 356 358 1 2 3 3 3 3 5 9 12 13 12 13 15 14 13 12 10 5 0 358 359 357 354 357 5 14 18 17 15 12 7 3 359 353 343 333 330 326 305 262 245 242 239 238 240 238 233 229 227 226 227 227 226 225 223 223 226 228 227
345 346 347 347 348 349 351 353 355 357 357 357 359 0 360 358 357 355 352 349 348 349 352 354 356 359 1 3 5 6 5 7 9 13 13 11 11 15 16 14 13 9 2 358 358 359 359 358 356 356 2 12 21 20 16 7 359 357 355 350 343 336 327 324 347 18 211 214 217 224 230 231 230 226 220 220 224 228 228 228 226 223 221 223 226
345 345 347 348 349 349 351 353 355 357 357 358 360 1 1 1 360 358 354 350 348 348 351 353 356 359 1 3 6 7 9 10 11 15 20 19 16 15 14 12 12 11 3 358 360 3 4 7 13 14 16 24 30 25 18 11 5 1 357 351 348 346 337 331 345 351 303 247 227 229 228 223 222 220 217 221 226 228 229 229 227 224 222 220 222
346 345 346 349 350 351 352 354 356 357 357 358 360 0 1 3 2 360 358 354 349 348 350 353 356 360 1 2 4 6 9 11 12 13 15 21 29 29 15 9 8 10 8 3 6 12 17 23 29 31 30 31 26 15 8 6 2 359 354 348 346 345 338 326 312 301 310 285 261 250 238 229 227 225 222 224 229 230 229 224 215 213 214 215 217
348 347 347 350 352 354 355 356 357 358 358 359 359 360 2 4 5 3 1 358 353 350 350 352 355 359 2 2 2 4 7 10 13 14 12 13 17 25 28 14 7 5 5 5 9 21 31 32 29 24 21 21 17 10 6 3 1 360 358 352 347 346 342 330 309 285 222 222 267 267 254 239 233 232 228 225 224 224 225 223 211 203 204 207 211
Height
1515 1515 1514 1512 1510 1509 1508 1507 1505 1503 1502 1501 1499 1498 1496 1494 1492 1489 1488 1487 1485 1483 1482 1481 1480 1478 1476 1474 1474 1473 1473 1471 1471 1470 1470 1469 1468 1467 1466 1465 1465 1465 1465 1464 1464 1464 1463 1463 1463 1463 1463 1463 1463 1463 1463 1463 1463 1463 1463 1463 1463 1463 1464 1466 1468 1468 1468 1468 1469 1469 1470 1471 1472 1473 1474 1476 1479 1481 1484 1486 1487 1489 1492 1495 1498
1515 1514 1513 1512 1510 1508 1507 1505 1503 1501 1500 1499 1497 1496 1494 1492 1489 1487 1485 1484 1484 1483 1481 1480 1479 1477 1474 1473 1472 1471 1470 1469 1468 1467 1467 1466 1465 1465 1464 1463 1463 1462 1462 1461 1461 1461 1460 1460 1460 1459 1459 1459 1459 1459 1460 1460 1460 1460 1460 1460 1460 1460 1460 1462 1464 1465 1464 1464 1466 1467 1466 1466 1467 1468 1469 1470 1473 1475 1478 1480 1482 1484 1487 1491 1494
1514 1514 1513 1512 1510 1508 1506 1504 1502 1500 1498 1497 1495 1493 1491 1489 1486 1485 1483 1483 1482 1482 1480 1479 1478 1476 1474 1472 1471 1469 1468 1467 1466 1465 1464 1464 1463 1462 1461 1461 1460 1459 1459 1459 1458 1458 1457 1457 1456 1456 1456 1456 1455 1455 1456 1456 1457 1457 1458 1457 1457 1457 1457 1458 1460 1462 1461 1462 1463 1463 1463 1463 1462 1462 1462 1463 1466 1469 1471 1474 1477 1480 1483 1487 1489
1514 1513 1512 1511 1509 1507 1505 1503 1501 1499 1497 1494 1492 1490 1488 1486 1484 1482 1481 1480 1480 1479 1479 1477 1475 1474 1472 1471 1470 1468 1466 1465 1464 1462 1462 1461 1459 1459 1458 1458 1457 1456 1456 1456 1455 1455 1454 1454 1453 1453 1453 1452 1452 1452 1452 1453 1454 1454 1455 1455 1455 1454 1454 1455 1457 1458 1459 1459 1460 1460 1460 1460 1458 1457 1457 1457 1460 1463 1465 1468 1472 1475 1478 1481 1484
1513 1512 1511 1510 1509 1506 1504 1503 1501 1498 1495 1492 1489 1487 1486 1484 1482 1481 1479 1478 1478 1477 1476 1474 1472 1470 1469 1467 1466 1464 1463 1461 1460 1459 1458 1457 1456 1455 1455 1454 1454 1453 1453 1452 1452 1451 1451 1450 1450 1450 1450 1449 1449 1449 1449 1450 1450 1451 1452 1452 1452 1452 1451 1452 1453 1455 1456 1456 1456 1456 1457 1456 1454 1455 1455 1454 1455 1457 1460 1463 1466 1468 1472 1475 1478
1512 1511 1510 1509 1508 1505 1503 1501 1500 1497 1493 1490 1487 1485 1483 1482 1480 1478 1476 1475 1475 1474 1473 1472 1470 1468 1466 1464 1463 1461 1460 1459 1458 1456 1455 1453 1453 1452 1451 1451 1451 1450 1450 1449 1449 1448 1447 1447 1447 1446 1446 1446 1446 1446 1446 1446 1447 1447 1448 1448 1448 1449 1449 1449 1449 1451 1452 1453 1453 1453 1453 1453 1453 1454 1453 1451 1450 1452 1455 1458 1460 1463 1466 1469 1472
1512 1510 1509 1508 1505 1503 1501 1499 1497 1494 1490 1487 1485 1483 1481 1479 1478 1475 1474 1473 1472 1471 1470 1469 1468 1466 1465 1463 1462 1460 1458 1457 1455 1454 1451 1450 1448 1448 1447 1447 1447 1447 1446 1446 1445 1445 1444 1444 1443 1443 1442 1443 1443 1443 1443 1443 1443 1443 1444 1445 1445 1446 1446 1445 1446 1448 1449 1449 1449 1450 1449 1450 1451 1451 1451 1450 1449 1448 1450 1452 1454 1457 1460 1463 1465
1511 1509 1507 1505 1503 1501 1499 1497 1494 1490 1487 1485 1484 1481 1478 1476 1474 1473 1472 1471 1470 1470 1468 1467 1466 1464 1463 1461 1459 1458 1456 1453 1451 1449 1447 1445 1444 1443 1443 1443 1442 1443 1442 1442 1442 1441 1441 1440 1439 1439 1439 1439 1439 1439 1439 1439 1439 1440 1440 1441 1441 1442 1442 1442 1442 1444 1445 1445 1446 1446 1446 1446 1447 1447 1448 1448 1447 1446 1446 1447 1449 1452 1454 1456 1459
1510 1508 1505 1503 1501 1499 1497 1493 1490 1487 1485 1483 1481 1477 1474 1472 1472 1471 1469 1468 1468 1467 1466 1465 1463 1461 1460 1458 1456 1454 1452 1449 1446 1443 1442 1440 1439 1438 1438 1438 1438 1438 1438 1438 1437 1437 1437 1436 1436 1436 1435 1435 1435 1435 1435 1436 1436 1436 1437 1437 1437 1437 1438 1439 1439 1439 1441 1441 1442 1443 1443 1443 1443 1444 1444 1445 1445 1444 1443 1443 1444 1446 1448 1449 1452
1507 1505 1503 1501 1498 1496 1493 1490 1487 1484 1482 1480 1477 1474 1472 1470 1469 1467 1466 1465 1465 1464 1463 1462 1460 1458 1457 1455 1452 1450 1447 1444 1441 1438 1436 1435 1434 1433 1433 1432 1432 1433 1433 1433 1433 1432 1432 1431 1432 1431 1431 1431 1431 1431 1431 1432 1432 1432 1433 1433 1433 1433 1434 1434 1435 1435 1437 1437 1438 1439 1439 1439 1439 1439 1440 1441 1442 1441 1440 1440 1441 1442 1442 1444 1446
1505 1503 1500 1498 1496 1493 1490 1486 1484 1482 1479 1477 1474 1471 1469 1468 1466 1464 1463 1462 1461 1460 1459 1458 1456 1455 1453 1451 1449 1446 1443 1440 1437 1434 1432 1431 1429 1428 1427 1427 1427 1427 1427 1427 1427 1427 1427 1427 1427 1426 1427 1427 1427 1427 1427 1427 1428 1428 1428 1429 1429 1429 1429 1430 1430 1431 1432 1433 1434 1435 1435 1435 1436 1436 1436 1438 1439 1439 1438 1438 1438 1439 1440 1440 1442
1504 1501 1498 1495 1492 1489 1487 1484 1482 1480 1477 1474 1471 1469 1466 1464 1462 1460 1460 1459 1458 1457 1455 1454 1452 1451 1449 1447 1445 1442 1439 1436 1433 1430 1428 1427 1425 1424 1423 1422 1421 1422 1422 1422 1422 1422 1422 1422 1421 1421 1422 1423 1423 1423 1423 1423 1423 1423 1424 1424 1424 1425 1425 1426 1426 1427 1428 1429 1430 1430 1431 1431 1432 1432 1433 1434 1435 1436 1436 1436 1436 1437 1437 1437 1439
1501 1498 1495 1493 1490 1487 1484 1482 1479 1477 1474 1471 1468 1466 1463 1461 1459 1457 1456 1455 1454 1453 1451 1450 1448 1446 1444 1442 1440 1437 1434 1432 1428 1426 1424 1423 1422 1421 1420 1418 1417 1417 1416 1416 1417 1417 1417 1416 1416 1417 1418 1418 1419 1419 1419 1419 1419 1419 1419 1419 1420 1420 1421 1421 1422 1422 1424 1424 1425 1426 1427 1427 1427 1428 1430 1430 1431 1432 1433 1433 1433 1434 1434 1435 1436
1500 1497 1494 1491 1487 1484 1481 1478 1475 1473 1471 1468 1465 1462 1460 1458 1456 1454 1452 1451 1450 1448 1447 1445 1443 1441 1439 1437 1435 1432 1429 1426 1423 1421 1420 1419 1418 1417 1415 1414 1413 1412 1411 1411 1411 1412 1412 1411 1411 1412 1413 1413 1414 1414 1415 1415 1415 1415 1415 1415 1415 1416 1417 1417 1417 1418 1419 1420 1421 1422 1422 1423 1423 1425 1426 1426 1427 1428 1428 1429 1431 1431 1432 1432 1432
1499 1496 1493 1489 1485 1482 1478 1475 1472 1469 1466 1464 1461 1458 1456 1455 1453 1451 1449 1447 1446 1444 1442 1440 1438 1436 1434 1432 1429 1427 1423 1420 1418 1416 1415 1414 1413 1411 1410 1409 1409 1408 1407 1407 1406 1407 1407 1406 1407 1407 1407 1408 1409 1410 1410 1410 1410 1410 1410 1410 1410 1411 1412 1412 1413 1413 1414 1415 1416 1417 1418 1419 1420 1421 1422 1422 1423 1424 1424 1426 1428 1429 1429 1429 1428
1496 1492 1489 1485 1482 1478 1475 1471 1468 1465 1462 1459 1457 1455 1453 1452 1450 1448 1446 1444 1442 1440 1438 1436 1433 1431 1429 1426 1424 1421 1418 1415 1413 1411 1410 1409 1407 1406 1404 1404 1404 1403 1403 1402 1402 1402 1402 1402 1402 1402 1403 1404 1404 1405 1405 1406 1406 1405 1405 1405 1405 1406 1407 1408 1408 1408 1409 1410 1411 1413 1414 1414 1415 1417 1418 1418 1419 1420 1421 1422 1424 1425 1426 1426 1425
1493 1489 1485 1482 1478 1475 1471 1468 1464 1461 1459 1456 1454 1452 1451 1449 1447 1444 1443 1440 1438 1436 1434 1432 1429 1426 1424 1421 1419 1416 1412 1410 1408 1406 1404 1403 1402 1401 1400 1400 1399 1399 1398 1398 1397 1397 1398 1398 1398 1398 1399 1399 1400 1400 1401 1401 1401 1400 1400 1399 1399 1401 1402 1402 1404 1404 1404 1405 1406 1408 1409 1410 1411 1413 1414 1415 1415 1416 1417 1418 1419 1421 1423 1423 1423
1490 1486 1482 1478 1474 1471 1468 1465 1462 1459 1456 1453 1451 1450 1448 1446 1444 1441 1439 1437 1435 1433 1430 1427 1424 1421 1418 1416 1413 1410 1407 1405 1402 1401 1399 1398 1398 1397 1396 1396 1395 1395 1393 1393 1393 1393 1393 1393 1393 1393 1394 1395 1395 1396 1396 1396 1396 1395 1395 1394 1394 1395 1396 1397 1399 1400 1400 1401 1402 1403 1404 1405 1407 1408 1410 1411 1412 1412 1413 1414 1414 1416 1418 1419 1420
1488 1483 1479 1475 1471 1468 1465 1461 1459 1456 1454 1452 1449 1448 1445 1443 1441 1438 1436 1434 1432 1429 1426 1423 1420 1417 1414 1411 1408 1405 1402 1400 1398 1397 1396 1395 1394 1393 1392 1392 1391 1390 1389 1389 1389 1389 1389 1389 1389 1389 1390 1390 1390 1391 1391 1391 1391 1391 1390 1389 1389 1391 1391 1392 1394 1395 1396 1397 1398 1398 1400 1401 1402 1404 1406 1407 1408 1409 1409 1410 1411 1412 1413 1415 1416
1486 1481 1478 1474 1470 1467 1463 1459 1457 1454 1451 1449 1447 1445 1443 1441 1438 1436 1434 1431 1428 1425 1422 1419 1416 1413 1409 1406 1403 1400 1399 1397 1396 1394 1393 1392 1390 1389 1389 1388 1387 1386 1385 1385 1384 1384 1385 1385 1385 1385 1385 1386 1386 1386 1387 1387 1387 1386 1385 1385 1385 1386 1386 1386 1389 1390 1391 1392 1393 1394 1395 1397 1398 1400 1401 1403 1404 1405 1406 1407 1407 1408 1409 1410 1412
1484 1481 1478 1474 1470 1467 1463 1460 1456 1453 1451 1448 1445 1443 1440 1438 1436 1433 1431 1428 1425 1422 1419 1416 1412 1408 1405 1401 1399 1397 1396 1395 1393 1391 1390 1388 1387 1386 1385 1384 1383 1382 1381 1380 1380 1380 1380 1380 1381 1381 1381 1381 1381 1382 1383 1383 1382 1381 1381 1381 1381 1382 1382 1382 1384 1386 1387 1388 1389 1390 1391 1392 1395 1396 1398 1399 1400 1401 1402 1403 1404 1405 1405 1407 1408
1483 1481 1477 1473 1470 1467 1464 1461 1457 1454 1450 1447 1444 1441 1437 1435 1432 1430 1427 1425 1422 1419 1415 1412 1408 1404 1401 1398 1396 1394 1393 1392 1390 1388 1386 1385 1384 1382 1381 1380 1379 1378 1377 1376 1375 1375 1375 1376 1376 1376 1377 1377 1377 1378 1378 1379 1378 1378 1378 1378 1377 1378 1377 1378 1379 1381 1382 1384 1384 1385 1387 1388 1391 1392 1394 1395 1396 1398 1399 1399 1400 1401 1401 1403 1404
1483 1480 1476 1473 1470 1467 1464 1461 1458 1454 1450 1446 1443 1439 1435 1431 1429 1427 1425 1422 1419 1415 1412 1408 1404 1401 1398 1396 1394 1392 1390 1389 1387 1384 1383 1381 1380 1378 1377 1376 1374 1373 1372 1371 1371 1370 1370 1370 1371 1372 1372 1373 1373 1373 1374 1374 1374 1374 1374 1374 1374 1374 1374 1374 1375 1376 1378 1380 1380 1381 1382 1384 1387 1388 1390 1391 1393 1394 1395 1396 1396 1397 1398 1399 1400
1482 1479 1476 1473 1470 1467 1463 1460 1456 1453 1449 1445 1442 1438 1434 1430 1427 1425 1422 1419 1416 1412 1408 1404 1401 1398 1396 1394 1392 1390 1388 1386 1384 1381 1379 1378 1376 1375 1373 1372 1370 1369 1368 1367 1366 1366 1365 1365 1366 1367 1367 1368 1368 1368 1369 1369 1369 1370 1370 1370 1371 1371 1371 1371 1371 1373 1374 1376 1376 1377 1378 1381 1383 1384 1386 1387 1389 1390 1391 1392 1393 1393 1394 1395 1397
1481 1478 1475 1472 1468 1465 1462 1458 1455 1452 1448 1444 1440 1436 1432 1429 1426 1423 1419 1416 1413 1409 1405 1401 1398 1396 1394 1392 1390 1387 1385 1383 1381 1379 1376 1375 1373 1372 1370 1369 1367 1366 1365 1364 1363 1362 1362 1361 1361 1362 1362 1362 1363 1363 1364 1364 1365 1366 1366 1367 1367 1367 1367 1367 1368 1369 1371 1371 1372 1373 1375 1377 1379 1380 1381 1383 1385 1386 1387 1388 1389 1390 1391 1392 1393
1481 1477 1474 1471 1467 1464 1461 1458 1454 1451 1447 1443 1438 1434 1431 1427 1424 1421 1417 1413 1409 1406 1402 1399 1397 1394 1392 1390 1388 1386 1383 1381 1378 1376 1374 1372 1370 1369 1368 1366 1365 1363 1362 1360 1360 1359 1359 1358 1357 1357 1357 1357 1358 1359 1359 1360 1361 1361 1362 1363 1363 1363 1363 1363 1364 1365 1367 1367 1368 1370 1372 1373 1375 1376 1377 1379 1381 1382 1384 1385 1386 1387 1388 1389 1390
1481 1477 1474 1470 1466 1463 1460 1457 1453 1449 1445 1441 1436 1432 1429 1426 1422 1419 1416 1411 1407 1403 1400 1398 1395 1393 1390 1388 1386 1383 1381 1378 1376 1373 1371 1369 1367 1366 1365 1363 1361 1360 1358 1357 1356 1356 1355 1354 1353 1353 1353 1353 1354 1354 1355 1355 1356 1357 1358 1359 1359 1359 1359 1359 1359 1361 1363 1364 1365 1366 1368 1369 1371 1372 1374 1376 1377 1379 1381 1382 1383 1384 1385 1385 1386
1479 1476 1472 1468 1465 1462 1459 1456 1452 1447 1443 1439 1435 1432 1428 1425 1421 1417 1413 1409 1406 1402 1399 1397 1394 1391 1389 1386 1383 1381 1378 1376 1373 1371 1369 1367 1365 1363 1361 1360 1358 1356 1355 1354 1353 1352 1351 1350 1350 1349 1349 1349 1349 1350 1351 1352 1352 1353 1354 1355 1355 1355 1356 1356 1356 1357 1359 1360 1361 1363 1364 1366 1367 1369 1371 1372 1374 1376 1377 1378 1380 1381 1382 1382 1383
1478 1474 1471 1468 1465 1462 1458 1454 1450 1446 1442 1438 1435 1431 1427 1423 1419 1415 1411 1408 1405 1402 1399 1396 1393 1390 1387 1384 1382 1379 1376 1374 1372 1369 1367 1365 1362 1360 1358 1356 1354 1353 1351 1350 1349 1348 1347 1346 1345 1345 1344 1344 1344 1344 1346 1347 1348 1349 1350 1351 1351 1352 1352 1353 1353 1354 1355 1356 1358 1359 1361 1363 1364 1366 1368 1369 1371 1372 1373 1374 1377 1378 1379 1379 1380
1478 1474 1471 1468 1465 1461 1457 1453 1449 1446 1442 1438 1434 1430 1425 1421 1417 1414 1410 1407 1404 1401 1398 1395 1392 1389 1386 1383 1380 1378 1375 1372 1370 1367 1365 1362 1360 1358 1355 1353 1351 1349 1348 1347 1346 1344 1343 1342 1341 1340 1339 1339 1338 1339 1340 1342 1344 1345 1346 1346 1347 1348 1349 1350 1350 1351 1352 1353 1354 1356 1358 1360 1362 1363 1365 1366 1367 1369 1370 1371 1374 1375 1376 1377 1377
1478 1475 1471 1468 1464 1460 1456 1453 1449 1445 1441 1437 1433 1429 1424 1421 1417 1413 1410 1407 1404 1400 1397 1394 1391 1388 1385 1382 1379 1376 1373 1370 1367 1365 1362 1359 1357 1355 1352 1350 1348 1346 1345 1343 1342 1341 1339 1338 1337 1336 1335 1334 1334 1334 1335 1337 1338 1340 1341 1342 1342 1344 1345 1346 1347 1348 1349 1350 1351 1353 1355 1357 1359 1360 1362 1363 1364 1365 1367 1368 1370 1372 1374 1374 1375
1478 1475 1471 1467 1463 1459 1456 1452 1448 1444 1440 1437 1433 1428 1424 1420 1417 1413 1410 1406 1403 1400 1396 1393 1390 1386 1383 1380 1377 1374 1371 1368 1365 1362 1359 1357 1354 1352 1350 1348 1346 1344 1342 1340 1339 1337 1336 1335 1334 1333 1332 1331 1330 1331 1331 1332 1333 1335 1336 1337 1338 1339 1340 1341 1343 1344 1345 1347 1348 1350 1352 1354 1355 1357 1359 1360 1361 1362 1364 1365 1367 1369 1370 1372 1372
1478 1475 1471 1467 1463 1459 1455 1452 1448 1444 1440 1437 1433 1429 1424 1421 1417 1413 1409 1406 1402 1399 1395 1391 1388 1385 1382 1379 1375 1372 1369 1365 1362 1360 1357 1354 1352 1350 1347 1345 1343 1341 1339 1337 1336 1334 1333 1332 1332 1330 1330 1329 1328 1328 1328 1329 1329 1330 1332 1333 1333 1334 1335 1337 1339 1340 1342 1344 1345 1347 1348 1350 1352 1354 1356 1357 1359 1360 1361 1362 1364 1365 1367 1369 1370
1479 1475 1472 1467 1463 1459 1455 1451 1447 1444 1440 1437 1433 1429 1425 1421 1417 1413 1409 1405 1401 1398 1394 1390 1387 1383 1380 1377 1373 1370 1367 1363 1360 1358 1355 1353 1350 1348 1345 1343 1341 1339 1337 1335 1334 1333 1332 1331 1330 1329 1328 1327 1327 1327 1327 1327 1327 1327 1328 1329 1329 1329 1330 1332 1334 1336 1338 1340 1342 1343 1345 1347 1349 1350 1352 1354 1356 1357 1358 1359 1361 1362 1363 1365 1367
1479 1475 1471 1467 1463 1458 1454 1450 1446 1443 1440 1436 1432 1428 1424 1420 1416 1412 1408 1404 1401 1397 1393 1389 1386 1382 1379 1375 1372 1368 1365 1362 1359 1356 1354 1351 1349 1346 1344 1342 1340 1338 1336 1334 1333 1332 1331 1330 1329 1328 1327 1326 1326 1325 1325 1325 1325 1325 1325 1325 1325 1325 1325 1326 1329 1332 1334 1336 1338 1340 1342 1343 1345 1347 1349 1351 1353 1354 1356 1357 1358 1359 1360 1362 1364
1480 1475 1471 1467 1463 1458 1454 1449 1446 1443 1439 1436 1432 1428 1424 1420 1416 1412 1408 1404 1400 1396 1392 1389 1385 1381 1378 1374 1371 1367 1364 1361 1358 1355 1353 1350 1348 1345 1343 1341 1339 1337 1336 1334 1333 1331 1330 1329 1328 1326 1325 1325 1324 1324 1324 1323 1323 1323 1323 1322 1321 1321 1321 1322 1324 1327 1330 1332 1334 1336 1338 1340 1341 1344 1346 1348 1350 1351 1353 1354 1355 1356 1357 1359 1361
1481 1477 1472 1468 1463 1459 1454 1450 1446 1442 1439 1435 1431 1427 1424 1419 1415 1411 1407 1403 1400 1395 1391 1388 1384 1380 1377 1374 1371 1367 1363 1360 1358 1354 1352 1349 1347 1345 1343 1340 1338 1337 1335 1334 1333 1331 1330 1329 1328 1326 1325 1324 1323 1322 1322 1321 1321 1321 1321 1320 1319 1318 1318 1318 1319 1322 1325 1328 1330 1332 1335 1336 1338 1340 1342 1345 1346 1348 1349 1350 1352 1353 1355 1356 1358
1481 1476 1472 1468 1463 1458 1454 1450 1446 1442 1438 1435 1431 1427 1423 1419 1415 1411 1407 1403 1399 1395 1391 1387 1383 1380 1377 1374 1371 1367 1364 1360 1357 1354 1352 1349 1347 1345 1342 1340 1338 1336 1335 1334 1333 1332 1330 1329 1327 1326 1325 1323 1322 1321 1321 1320 1320 1320 1319 1318 1317 1316 1316 1316 1317 1318 1320 1323 1326 1329 1331 1333 1335 1337 1339 1341 1343 1345 1346 1347 1348 1350 1351 1353 1355
1480 1476 1471 1467 1462 1457 1453 1449 1445 1441 1437 1434 1430 1427 1423 1419 1414 1410 1407 1402 1398 1394 1391 1387 1383 1380 1377 1374 1371 1367 1364 1361 1357 1355 1352 1349 1347 1345 1342 1340 1338 1337 1335 1334 1333 1331 1330 1329 1327 1326 1324 1323 1321 1320 1319 1318 1318 1317 1317 1317 1316 1315 1315 1314 1315 1316 1317 1319 1321 1324 1327 1329 1331 1333 1336 1338 1340 1341 1342 1344 1345 1347 1348 1349 1352
1478 1474 1471 1466 1462 1457 1452 1448 1444 1440 1436 1433 1430 1426 1422 1418 1414 1410 1406 1402 1399 1395 1391 1388 1384 1381 1377 1374 1371 1367 1364 1361 1358 1355 1353 1350 1347 1345 1342 1341 1339 1337 1336 1334 1333 1331 1330 1328 1327 1326 1324 1322 1320 1319 1318 1316 1316 1315 1315 1315 1314 1314 1314 1313 1313 1314 1315 1316 1318 1320 1323 1326 1328 1330 1332 1334 1336 1337 1338 1340 1342 1343 1344 1346 1348
1477 1474 1470 1465 1461 1457 1453 1449 1445 1440 1436 1433 1430 1426 1422 1418 1414 1410 1406 1403 1399 1395 1391 1388 1384 1380 1377 1374 1371 1368 1365 1362 1359 1356 1353 1351 1348 1346 1343 1341 1339 1338 1336 1335 1333 1332 1330 1328 1327 1325 1323 1321 1319 1317 1316 1314 1313 1313 1312 1312 1312 1312 1313 1313 1313 1313 1313 1314 1315 1317 1320 1322 1325 1327 1328 1330 1332 1333 1335 1336 1338 1339 1341 1344 1346
1476 1473 1469 1465 1460 1456 1453 1449 1445 1440 1436 1433 1429 1426 1422 1418 1414 1410 1406 1403 1399 1395 1391 1388 1384 1380 1377 1374 1371 1368 1365 1362 1360 1357 1354 1352 1349 1346 1344 1342 1340 1338 1337 1335 1334 1332 1329 1328 1326 1324 1322 1320 1318 1316 1314 1312 1311 1311 1310 1310 1310 1310 1310 1311 1311 1312 1312 1313 1314 1316 1318 1320 1322 1323 1325 1326 1328 1330 1332 1333 1334 1336 1338 1341 1343
1475 1472 1468 1464 1460 1456 1452 1448 1444 1440 1436 1433 1429 1425 1421 1417 1414 1410 1406 1402 1399 1395 1391 1388 1384 1380 1377 1374 1371 1368 1365 1362 1359 1357 1354 1352 1349 1347 1345 1343 1341 1339 1337 1336 1334 1331 1329 1327 1325 1323 1320 1318 1316 1314 1312 1310 1310 1309 1308 1308 1307 1307 1308 1308 1309 1310 1311 1312 1313 1314 1316 1317 1319 1320 1322 1323 1325 1326 1328 1329 1331 1333 1336 1338 1340
1474 1471 1467 1464 1459 1455 1451 1448 1444 1440 1436 1433 1429 1425 1421 1417 1413 1410 1406 1402 1398 1395 1391 1388 1384 1381 1377 1374 1371 1368 1365 1362 1359 1356 1354 1352 1349 1347 1345 1343 1342 1340 1338 1336 1334 1331 1329 1326 1324 1322 1319 1317 1314 1312 1311 1309 1309 1308 1307 1307 1306 1305 1305 1306 1306 1307 1308 1309 1310 1312 1313 1314 1316 1317 1319 1320 1322 1323 1325 1326 1328 1331 1333 1335 1337
1474 1470 1467 1463 1459 1454 1450 1447 1443 1440 1436 1432 1429 1425 1420 1416 1412 1409 1405 1400 1397 1394 1391 1387 1384 1381 1377 1374 1371 1368 1365 1362 1360 1357 1354 1352 1349 1347 1345 1344 1342 1340 1338 1336 1334 1331 1329 1327 1324 1321 1318 1317 1315 1313 1311 1310 1309 1308 1307 1306 1305 1304 1304 1304 1304 1304 1305 1306 1307 1308 1310 1311 1313 1314 1315 1317 1318 1320 1322 1323 1326 1328 1330 1332 1334
1472 1469 1465 1462 1458 1454 1450 1445 1442 1439 1435 1432 1429 1425 1420 1416 1412 1408 1404 1400 1396 1393 1390 1387 1384 1381 1377 1374 1371 1368 1365 1362 1360 1357 1355 1352 1350 1348 1346 1345 1343 1341 1339 1337 1335 1332 1330 1327 1324 1321 1319 1318 1316 1314 1312 1311 1310 1309 1308 1306 1305 1304 1303 1302 1302 1302 1302 1303 1304 1305 1306 1307 1309 1310 1311 1313 1314 1316 1318 1320 1322 1325 1326 1328 1330
1472 1468 1464 1460 1456 1452 1448 1444 1440 1437 1434 1431 1428 1424 1420 1416 1411 1407 1403 1399 1396 1392 1389 1386 1383 1380 1377 1374 1371 1368 1365 1362 1359 1357 1354 1353 1351 1349 1347 1345 1343 1341 1340 1338 1336 1333 1330 1327 1324 1322 1320 1319 1317 1315 1313 1312 1310 1309 1308 1306 1305 1304 1302 1302 1301 1300 1300 1301 1301 1302 1303 1304 1305 1306 1308 1309 1311 1313 1315 1317 1319 1321 1323 1324 1326
1470 1467 1463 1460 1456 1452 1448 1444 1440 1436 1433 1430 1426 1423 1419 1415 1411 1407 1402 1398 1395 1392 1389 1386 1383 1380 1377 1374 1371 1368 1365 1362 1359 1357 1354 1352 1351 1349 1347 1346 1344 1342 1340 1339 1337 1334 1331 1328 1325 1323 1321 1320 1318 1316 1314 1313 1311 1309 1307 1306 1305 1303 1302 1301 1300 1300 1300 1300 1300 1301 1302 1303 1303 1304 1305 1307 1308 1310 1311 1313 1315 1317 1319 1321 1323
1469 1466 1463 1459 1455 1451 1447 1444 1440 1436 1433 1429 1425 1422 1418 1414 1410 1406 1402 1398 1394 1391 1389 1386 1383 1380 1377 1374 1372 1369 1366 1363 1360 1357 1355 1353 1352 1350 1348 1347 1345 1344 1342 1340 1338 1336 1333 1329 1326 1324 1322 1321 1319 1318 1316 1314 1312 1310 1308 1306 1305 1303 1302 1301 1300 1300 1300 1300 1300 1300 1301 1302 1302 1303 1304 1305 1306 1307 1308 1310 1311 1312 1314 1317 1319
1468 1465 1462 1459 1455 1451 1447 1443 1439 1436 1432 1428 1425 1421 1417 1414 1410 1406 1402 1398 1394 1391 1388 1385 1383 1380 1377 1374 1372 1369 1367 1364 1361 1358 1356 1354 1353 1351 1350 1348 1346 1344 1342 1341 1338 1336 1333 1330 1328 1326 1324 1322 1321 1319 1317 1316 1313 1311 1309 1307 1305 1304 1302 1301 1300 1300 1300 1300 1300 1300 1300 1300 1301 1302 1303 1303 1304 1306 1307 1308 1308 1309 1311 1313 1316
1467 1464 1460 1457 1453 1450 1446 1442 1438 1435 1431 1427 1424 1420 1416 1413 1409 1406 1402 1399 1395 1391 1388 1385 1382 1380 1378 1375 1372 1370 1367 1365 1362 1360 1357 1354 1353 1351 1350 1349 1347 1344 1342 1340 1338 1336 1333 1331 1329 1327 1325 1323 1322 1320 1318 1316 1314 1312 1310 1308 1306 1304 1303 1301 1300 1299 1299 1299 1300 1299 1299 1300 1300 1301 1302 1303 1303 1304 1306 1307 1308 1309 1310 1312 1314